This is the latest recevied weather packets stored in our database for station/object IZ2XCK-13. If no packets are shown the sender has not sent any weather packets the latest 1 day(s).
| Time | Temp. | Humidity | Pressure | Rain* | Wind** | Luminosity | Snow |
|---|---|---|---|---|---|---|---|
| 1777731921 | 25° C | 29% | 1022.9 hPa | - | - | - | - |
| 1777730721 | 25° C | 30% | 1023.2 hPa | - | - | - | - |
| 1777729521 | 23.89° C | 31% | 1023.4 hPa | - | - | - | - |
| 1777728321 | 23.33° C | 29% | 1023.6 hPa | - | - | - | - |
| 1777727120 | 23.33° C | 31% | 1024.1 hPa | - | - | - | - |
| 1777725920 | 23.33° C | 33% | 1024.2 hPa | - | - | - | - |
| 1777724720 | 22.78° C | 33% | 1024.6 hPa | - | - | - | - |
| 1777723519 | 21.67° C | 35% | 1024.7 hPa | - | - | - | - |
| 1777722319 | 21.67° C | 35% | 1025.2 hPa | - | - | - | - |
| 1777721119 | 21.11° C | 35% | 1025.5 hPa | - | - | - | - |
| 1777719918 | 20° C | 36% | 1025.8 hPa | - | - | - | - |
| 1777718718 | 19.44° C | 37% | 1026 hPa | - | - | - | - |
| 1777717518 | 18.33° C | 39% | 1026.3 hPa | - | - | - | - |
| 1777716317 | 18.33° C | 39% | 1026.4 hPa | - | - | - | - |
| 1777715117 | 17.22° C | 42% | 1026.7 hPa | - | - | - | - |
| 1777713917 | 17.22° C | 44% | 1026.9 hPa | - | - | - | - |
| 1777712716 | 16.11° C | 45% | 1027.1 hPa | - | - | - | - |
| 1777711516 | 15.56° C | 47% | 1027.3 hPa | - | - | - | - |
| 1777710316 | 15.56° C | 50% | 1027.4 hPa | - | - | - | - |
| 1777709116 | 14.44° C | 54% | 1027.6 hPa | - | - | - | - |
| 1777707915 | 13.89° C | 57% | 1027.9 hPa | - | - | - | - |
| 1777706715 | 13.33° C | 58% | 1027.9 hPa | - | - | - | - |
* Rain since midnight (hover to see other rain measurements)
** Current wind speed in m/s (hover to see current wind gust speed)